Terminal Aerodrome Forecast
Issued by NWS Anchorage, AK

Home | Current Version | Previous Version | Text Only | Print | Product List | Glossary On
Versions: 1 2 3 4 5 6 7 8 9 10 11 12 13 14 15 16 17 18 19 20 21 22 23 24 25 26 27 28 29 30 31 32 33 34 35 36 37 38
000
FTAK31 PANC 281135
TAFANC
TAF
PANC 281135Z 2812/2918 01012G25KT P6SM FEW025 SCT070 BKN250
      TEMPO 2812/2816 01010KT
     FM290200 34012G20KT P6SM FEW060 SCT200
     FM290900 34010KT P6SM SCT070=

USA.gov is the U.S. government's official web portal to all federal, state and local government web resources and services.